Vancouver Int'l Airport, British Columbia

Past 24 Hour Conditions

This table is a summary of hourly weather conditions for the past 24 hours. This summary includes the following parameters: temperature, humidity, dew point, wind speed and direction, air pressure, visibility and/or wind chill and humidex.
Date / Time
(PDT)
Conditions Temp (°C) Humidity (%) Dew Point (°C) Wind (km/h) Pressure (kPa) Visibility (km)
18 April 2014
21:00 Mostly Cloudy 10 63 4 E 13 101.6 24
20:00 Mostly Cloudy 11 63 4 SE 11 101.7 32
19:00 Partly Cloudy 12 58 4 ESE 18 101.7 32
18:00 Mainly Sunny 12 50 2 S 11 101.8 32
17:00 Partly Cloudy 12 48 2 SSW 11 101.8 48
16:00 Mainly Sunny 13   51 3 S 14 101.8 48
15:00 Mainly Sunny 13   52 3 S 15 101.9 48
14:00 Partly Cloudy 12 62 5 WSW 13 101.9 48
13:00 Partly Cloudy 11 61 4 SW 9 101.9 48
12:00 Partly Cloudy 10 62 4 SW 13 101.9 48
11:00 Mainly Sunny 11 61 3 WSW 16 101.9 48
10:00 Mainly Sunny 10 63 3 W 19 101.8 32
9:00 Mainly Sunny 10 66 4 W 18 101.7 32
8:00 Partly Cloudy 8 77 5 W 19 101.7 32
7:00 Partly Cloudy 8 85 6 WSW 20 101.6 32
6:00 Mostly Cloudy 8 76 4 WSW 22 101.5 32
5:00 Mainly Clear 7   79 4 W 23 101.4 24
4:00 Partly Cloudy 8 75 4 W 26 101.3 24
3:00 Cloudy 8 85 5 WSW 22 gust 32 101.2 24
2:00 Mostly Cloudy 8 81 5 W 22 101.2 24
1:00 Partly Cloudy 8 86 6 W 17 101.1 24
00:00 Mostly Cloudy 8 84 6 W 18 gust 31 101.0 24
17 April 2014
23:00 Mostly Cloudy 8 79 5 W 36 gust 47 100.9 24
22:00 Partly Cloudy 8 85 6 W 48 gust 62 100.8 24
21:00 Mostly Cloudy 8 83 5 W 52 gust 66 100.7 24
N/A
Not available
 ↑ 
Highest temperature
 ↓ 
Lowest temperature

If you require additional historical weather information, please visit Climate Data Online.